Date String (YYYY-MM-DD hh:mm:ss) UTC,Instrument flags,absolute air pressure of the measurement (hPa),sample flow rate (lpm),inlet stack bypass flow (lpm),air temperature of the measurement (°C),ambient temperature measured by the external sensor (°C),aerosol sample conditioner tube jacket temperature (°C),OPC LED temperature (°C),internal box temperature (°C),relative humidity of the measurement (%),span deviation,mass concentration of particles derived from Lorenz-Mie calculation of OPC scattering (μg/m³),mass concentration of particles derived from Lorenz-Mie calculation of OPC scattering (μg/m³),mass concentration of particles derived from Lorenz-Mie calculation of OPC scattering (μg/m³)
DateTimeUTC,F1_M11,P_M11,Q1_M11,Q2_M11,T1_M11,T2_M11,T3_M11,T4_M11,T5_M11,U1_M11,ZSPAN_M11,X0_M11,X2_M11,X1_M11
2023-09-09 02:00:00,SystemResetWarning,0834.2,5.00,000.00,027.9,026.7,000.0,036.1,029.6,19.5,0001.9,0022.76,0005.93,0004.22
2023-09-09 02:01:00,SystemResetWarning,0834.2,5.00,000.00,027.9,026.9,000.0,036.1,029.7,19.3,0001.8,0022.23,0005.99,0004.25
2023-09-09 02:02:00,SystemResetWarning,0834.2,4.99,000.00,028.0,026.4,000.0,036.1,029.7,19.2,0001.5,0021.21,0005.98,0004.25
2023-09-09 02:03:00,SystemResetWarning,0834.1,4.99,000.00,027.9,024.7,000.0,036.0,029.3,19.2,0001.6,0022.39,0005.99,0004.27
2023-09-09 02:04:00,SystemResetWarning,0834.1,5.01,000.00,027.8,024.0,000.0,036.0,029.2,19.2,0001.4,0022.13,0006.09,0004.30
2023-09-09 02:05:00,SystemResetWarning,0834.2,5.01,000.00,027.8,024.2,000.0,035.9,029.1,19.3,0001.3,0022.86,0006.21,0004.38
2023-09-09 02:06:00,SystemResetWarning,0834.2,5.00,000.00,027.7,024.6,000.0,036.0,029.1,19.4,0001.1,0023.27,0006.33,0004.46
2023-09-09 02:07:00,SystemResetWarning,0834.2,5.00,000.00,027.7,025.0,000.0,036.0,029.1,19.4,0001.1,0022.40,0006.40,0004.50
2023-09-09 02:08:00,SystemResetWarning,0834.3,5.00,000.00,027.7,025.4,000.0,036.0,029.2,19.2,0001.0,0022.77,0006.40,0004.52
2023-09-09 02:09:00,SystemResetWarning,0834.4,4.99,000.00,027.7,025.8,000.0,036.0,029.3,19.1,0000.9,0023.15,0006.31,0004.51
2023-09-09 02:10:00,SystemResetWarning,0834.4,5.00,000.00,027.8,026.2,000.0,036.0,029.4,18.9,0001.0,0023.48,0006.30,0004.50
2023-09-09 02:11:00,SystemResetWarning,0834.4,5.00,000.00,027.8,026.5,000.0,036.1,029.5,18.8,0001.3,0024.40,0006.28,0004.51
2023-09-09 02:12:00,SystemResetWarning,0834.3,5.01,000.00,027.9,026.7,000.0,036.1,029.6,18.8,0001.4,0026.93,0006.28,0004.50
2023-09-09 02:13:00,SystemResetWarning,0834.3,5.01,000.00,027.9,026.9,000.0,036.1,029.7,18.7,0001.8,0028.36,0006.33,0004.52
2023-09-09 02:14:00,SystemResetWarning,0834.4,4.99,000.00,028.0,027.1,000.0,036.1,029.8,18.8,0001.6,0027.21,0006.34,0004.53
2023-09-09 02:15:00,SystemResetWarning,0834.4,4.98,000.00,028.0,026.2,000.0,036.1,029.6,18.7,0002.0,0026.98,0006.35,0004.55
2023-09-09 02:16:00,SystemResetWarning,0834.4,5.01,000.00,027.9,024.4,000.0,036.0,029.2,18.8,0002.2,0026.90,0006.32,0004.55
2023-09-09 02:17:00,SystemResetWarning,0834.4,5.01,000.00,027.8,023.9,000.0,036.0,029.1,18.9,0002.0,0026.44,0006.28,0004.53
2023-09-09 02:18:00,SystemResetWarning,0834.4,5.00,000.00,027.8,024.2,000.0,036.0,029.1,18.9,0002.1,0027.74,0006.29,0004.53
2023-09-09 02:19:00,SystemResetWarning,0834.4,5.00,000.00,027.7,024.6,000.0,036.0,029.1,19.0,0002.2,0027.18,0006.27,0004.52
2023-09-09 02:20:00,SystemResetWarning,0834.4,5.00,000.00,027.7,025.0,000.0,036.0,029.2,19.0,0002.1,0026.28,0006.28,0004.52
2023-09-09 02:21:00,SystemResetWarning,0834.4,5.00,000.00,027.7,025.5,000.0,036.0,029.2,19.0,0001.9,0025.69,0006.27,0004.53
2023-09-09 02:22:00,SystemResetWarning,0834.5,5.00,000.00,027.7,025.9,000.0,036.0,029.3,19.0,0001.6,0026.80,0006.27,0004.54
2023-09-09 02:23:00,SystemResetWarning,0834.5,5.00,000.00,027.8,026.2,000.0,036.0,029.4,18.9,0001.1,0026.02,0006.32,0004.54
2023-09-09 02:24:00,SystemResetWarning,0834.5,5.00,000.00,027.8,026.5,000.0,036.1,029.5,18.9,0000.9,0024.43,0006.28,0004.54
2023-09-09 02:25:00,SystemResetWarning,0834.5,5.01,000.00,027.9,026.7,000.0,036.1,029.6,18.8,0000.8,0024.10,0006.29,0004.54
2023-09-09 02:26:00,SystemResetWarning,0834.5,5.01,000.00,027.9,026.9,000.0,036.1,029.7,18.7,0000.9,0024.16,0006.28,0004.52
2023-09-09 02:27:00,SystemResetWarning,0834.5,4.99,000.00,028.0,027.0,000.0,036.2,029.7,18.7,0000.9,0025.43,0006.26,0004.52
2023-09-09 02:28:00,SystemResetWarning,0834.5,4.98,000.00,028.0,025.8,000.0,036.1,029.5,18.6,0000.9,0025.90,0006.25,0004.52
2023-09-09 02:29:00,SystemResetWarning,0834.5,5.01,000.00,027.9,024.1,000.0,036.0,029.1,18.7,0000.9,0026.51,0006.26,0004.52
2023-09-09 02:30:00,SystemResetWarning,0834.5,5.02,000.00,027.8,023.8,000.0,036.0,029.1,18.7,0001.1,0025.18,0006.26,0004.52
2023-09-09 02:31:00,SystemResetWarning,0834.5,5.00,000.00,027.7,024.1,000.0,036.0,029.0,18.8,0001.3,0025.51,0006.33,0004.51
2023-09-09 02:32:00,SystemResetWarning,0834.5,5.00,000.00,027.7,024.6,000.0,036.0,029.0,18.8,0001.6,0025.15,0006.28,0004.52
2023-09-09 02:33:00,SystemResetWarning,0834.5,5.00,000.00,027.7,025.0,000.0,036.0,029.1,18.8,0001.5,0024.29,0006.29,0004.53
2023-09-09 02:34:00,SystemResetWarning,0834.5,4.99,000.00,027.7,025.4,000.0,036.0,029.2,18.7,0001.4,0022.38,0006.30,0004.53
2023-09-09 02:35:00,SystemResetWarning,0834.5,5.00,000.00,027.7,025.8,000.0,036.0,029.3,18.7,0001.5,0022.22,0006.31,0004.55
2023-09-09 02:36:00,SystemResetWarning,0834.7,5.00,000.00,027.7,026.2,000.0,036.0,029.4,18.6,0001.5,0023.09,0006.36,0004.55
2023-09-09 02:37:00,SystemResetWarning,0835.0,5.00,000.00,027.8,026.4,000.0,036.1,029.5,18.2,0001.5,0022.58,0006.31,0004.56
2023-09-09 02:38:00,SystemResetWarning,0835.1,5.01,000.00,027.8,026.7,000.0,036.1,029.5,18.0,0001.1,0022.46,0006.31,0004.57
2023-09-09 02:39:00,SystemResetWarning,0835.1,5.00,000.00,027.9,026.9,000.0,036.1,029.6,18.0,0001.1,0021.43,0006.37,0004.59
2023-09-09 02:40:00,SystemResetWarning,0834.9,4.99,000.00,027.9,027.0,000.0,036.1,029.7,17.9,0001.1,0020.01,0006.45,0004.60
2023-09-09 02:41:00,SystemResetWarning,0834.9,4.99,000.00,028.0,027.0,000.0,036.2,029.7,18.0,0001.2,0020.32,0006.46,0004.61
2023-09-09 02:42:00,SystemResetWarning,0835.1,4.99,000.00,028.0,025.6,000.0,036.1,029.4,17.8,0001.4,0021.36,0006.42,0004.62
2023-09-09 02:43:00,SystemResetWarning,0835.0,5.00,000.00,027.9,024.0,000.0,036.0,029.1,17.8,0001.6,0023.99,0006.46,0004.61
2023-09-09 02:44:00,SystemResetWarning,0835.0,5.00,000.00,027.8,023.9,000.0,036.0,029.1,17.5,0001.3,0024.64,0006.52,0004.61
2023-09-09 02:45:00,SystemResetWarning,0835.1,5.01,000.00,027.7,024.2,000.0,036.0,029.0,16.0,0001.6,0024.65,0006.48,0004.59
2023-09-09 02:46:00,SystemResetWarning,0834.6,5.00,000.00,027.6,024.6,000.0,036.0,029.0,14.9,0001.9,0023.81,0006.40,0004.57
2023-09-09 02:47:00,SystemResetWarning,0834.6,4.99,000.00,027.6,025.0,000.0,036.0,029.1,14.6,0001.9,0024.20,0006.37,0004.55
2023-09-09 02:48:00,SystemResetWarning,0834.8,4.99,000.00,027.7,025.5,000.0,036.0,029.2,13.9,0001.9,0025.73,0006.43,0004.53
2023-09-09 02:49:00,SystemResetWarning,0834.9,5.01,000.00,027.7,025.8,000.0,036.0,029.3,13.6,0002.2,0026.39,0006.43,0004.52
2023-09-09 02:50:00,SystemResetWarning,0835.2,5.00,000.00,027.7,026.1,000.0,036.0,029.4,12.1,0002.4,0027.82,0006.47,0004.51
2023-09-09 02:51:00,SystemResetWarning,0835.2,5.00,000.00,027.8,026.4,000.0,036.1,029.5,11.8,0002.4,0027.58,0006.34,0004.50
2023-09-09 02:52:00,SystemResetWarning,0835.0,5.00,000.00,027.8,026.6,000.0,036.1,029.5,11.8,0002.1,0028.28,0006.30,0004.49
2023-09-09 02:53:00,SystemResetWarning,0834.7,5.01,000.00,027.9,026.8,000.0,036.1,029.6,12.4,0001.9,0026.80,0006.23,0004.47
2023-09-09 02:54:00,SystemResetWarning,0834.7,5.00,000.00,027.9,027.0,000.0,036.1,029.7,13.1,0001.9,0024.29,0006.15,0004.46
2023-09-09 02:55:00,SystemResetWarning,0834.7,4.99,000.00,028.0,027.1,000.0,036.2,029.7,13.5,0002.2,0024.38,0006.14,0004.46
2023-09-09 02:56:00,SystemResetWarning,0834.7,4.98,000.00,028.0,026.3,000.0,036.2,029.6,15.2,0002.1,0024.93,0006.24,0004.46
2023-09-09 02:57:00,SystemResetWarning,0834.9,5.00,000.00,027.9,024.4,000.0,036.1,029.2,16.1,0002.1,0026.13,0006.42,0004.49
2023-09-09 02:58:00,SystemResetWarning,0835.1,5.01,000.00,027.8,023.8,000.0,036.0,029.1,15.6,0001.8,0026.70,0006.44,0004.51
2023-09-09 02:59:00,SystemResetWarning,0834.9,5.01,000.00,027.7,024.0,000.0,036.0,029.0,15.6,0001.8,0025.19,0006.39,0004.53
